| time (UTC) | temp C | wind direction | speed KPH | gust KPH | rain 1hr cm | rain 24hr cm | rain mn cm | humidity % | barometer mb |
| 20260905024513 | 16 | 55 | 0.0 | 0.0 | 0.00 | 0.00 | 0.00 | 48 | 1010.8 |
| 20260905023012 | 16 | 55 | 0.0 | 0.0 | 0.00 | 0.00 | 0.00 | 47 | 1010.7 |
| 20260905021515 | 17 | 54 | 0.0 | 0.0 | 0.00 | 0.00 | 0.00 | 47 | 1010.7 |
| 20260905020013 | 17 | 56 | 0.0 | 0.0 | 0.00 | 0.00 | 0.00 | 47 | 1010.6 |
| 20260905014510 | 17 | 50 | 0.0 | 0.0 | 0.00 | 0.00 | 0.00 | 46 | 1010.6 |
| 20260905013015 | 18 | 14 | 0.0 | 0.0 | 0.00 | 0.00 | 0.00 | 46 | 1010.5 |
| 20260905011510 | 18 | 76 | 0.0 | 0.0 | 0.00 | 0.00 | 0.00 | 45 | 1010.5 |
| 20260905010010 | 18 | 87 | 0.0 | 0.0 | 0.00 | 0.00 | 0.00 | 47 | 1010.4 |
| 20260905004509 | 19 | 102 | 0.0 | 0.0 | 0.00 | 0.00 | 0.00 | 44 | 1010.3 |
| 20260905003009 | 21 | 303 | 0.0 | 0.0 | 0.00 | 0.00 | 0.00 | 36 | 1010.1 |
| 20260905001509 | 21 | 297 | 0.0 | 0.0 | 0.00 | 0.00 | 0.00 | 38 | 1010.0 |
| 20260905000011 | 20 | 9 | 0.0 | 0.0 | 0.00 | 0.00 | 0.00 | 37 | 1010.0 |
| 20260904234508 | 21 | 4 | 0.0 | 0.0 | 0.00 | 0.00 | 0.00 | 36 | 1010.0 |
| 20260904233007 | 21 | 55 | 0.0 | 0.0 | 0.00 | 0.00 | 0.00 | 37 | 1010.1 |
| 20260904231509 | 20 | 55 | 0.0 | 0.0 | 0.00 | 0.00 | 0.00 | 42 | 1010.1 |
| 20260904230007 | 20 | 55 | 0.0 | 0.0 | 0.00 | 0.00 | 0.00 | 40 | 1010.2 |
| 20260904224509 | 20 | 55 | 0.0 | 0.0 | 0.00 | 0.00 | 0.00 | 37 | 1010.3 |
| 20260904223006 | 21 | 40 | 0.0 | 0.0 | 0.00 | 0.00 | 0.00 | 35 | 1010.2 |
| 20260904221505 | 22 | 343 | 0.0 | 0.0 | 0.00 | 0.00 | 0.00 | 37 | 1010.2 |
| 20260904220002 | 21 | 342 | 0.0 | 0.0 | 0.00 | 0.00 | 0.00 | 36 | 1010.4 |
| 20260904214602 | 21 | 340 | 0.0 | 0.0 | 0.00 | 0.00 | 0.00 | 36 | 1010.4 |
| 20260904213057 | 20 | 346 | 0.0 | 0.0 | 0.00 | 0.00 | 0.00 | 41 | 1010.3 |
| 20260904211556 | 20 | 333 | 0.0 | 0.0 | 0.00 | 0.00 | 0.00 | 39 | 1010.3 |
| 20260904210057 | 20 | 333 | 0.0 | 0.0 | 0.00 | 0.00 | 0.00 | 38 | 1010.3 |
| 20260904204554 | 20 | 333 | 0.0 | 0.0 | 0.00 | 0.00 | 0.00 | 40 | 1010.2 |
| 20260904203054 | 20 | 333 | 0.0 | 0.0 | 0.00 | 0.00 | 0.00 | 44 | 1010.2 |
| 20260904201553 | 20 | 333 | 0.0 | 0.0 | 0.00 | 0.00 | 0.00 | 44 | 1010.4 |
| 20260904200057 | 19 | 332 | 0.0 | 0.0 | 0.00 | 0.00 | 0.00 | 45 | 1010.4 |
| 20260904194549 | 20 | 322 | 0.0 | 0.0 | 0.00 | 0.00 | 0.00 | 43 | 1010.4 |
| 20260904193047 | 19 | 322 | 0.0 | 0.0 | 0.00 | 0.00 | 0.00 | 45 | 1010.7 |
| 20260904191546 | 19 | 322 | 0.0 | 0.0 | 0.00 | 0.00 | 0.00 | 45 | 1010.7 |
| 20260904190048 | 18 | 318 | 0.0 | 0.0 | 0.00 | 0.00 | 0.00 | 47 | 1010.7 |
| 20260904184544 | 18 | 318 | 0.0 | 0.0 | 0.00 | 0.00 | 0.00 | 47 | 1010.9 |
| 20260904183101 | 19 | 318 | 0.0 | 0.0 | 0.00 | 0.00 | 0.00 | 45 | 1010.9 |
| 20260904181543 | 18 | 316 | 0.0 | 0.0 | 0.00 | 0.00 | 0.00 | 46 | 1011.1 |
| 20260904180136 | 17 | 312 | 0.0 | 0.0 | 0.00 | 0.00 | 0.00 | 49 | 1011.1 |
| 20260904174534 | 17 | 312 | 0.0 | 0.0 | 0.00 | 0.00 | 0.00 | 49 | 1011.2 |
| 20260904173030 | 17 | 312 | 0.0 | 0.0 | 0.00 | 0.00 | 0.00 | 51 | 1011.1 |
| 20260904171526 | 16 | 313 | 0.0 | 0.0 | 0.00 | 0.00 | 0.00 | 55 | 1011.0 |
| 20260904170025 | 15 | 313 | 0.0 | 0.0 | 0.00 | 0.00 | 0.00 | 57 | 1011.2 |
| 20260904164520 | 15 | 313 | 0.0 | 0.0 | 0.00 | 0.03 | 0.00 | 61 | 1011.1 |
| 20260904163017 | 13 | 313 | 0.0 | 0.0 | 0.00 | 0.03 | 0.00 | 63 | 1010.8 |
| 20260904161513 | 13 | 313 | 0.0 | 0.0 | 0.00 | 0.03 | 0.00 | 65 | 1010.7 |
| 20260904160008 | 12 | 313 | 0.0 | 0.0 | 0.00 | 0.03 | 0.00 | 70 | 1010.8 |
| 20260904154507 | 10 | 313 | 0.0 | 0.0 | 0.00 | 0.03 | 0.00 | 75 | 1010.9 |
| 20260904153006 | 10 | 283 | 0.0 | 0.0 | 0.00 | 0.03 | 0.00 | 77 | 1010.8 |
| 20260904151508 | 9 | 281 | 0.0 | 0.0 | 0.00 | 0.03 | 0.00 | 78 | 1010.6 |
| 20260904150005 | 8 | 338 | 0.0 | 0.0 | 0.00 | 0.03 | 0.00 | 80 | 1010.7 |
| 20260904144503 | 7 | 329 | 0.0 | 0.0 | 0.00 | 0.03 | 0.00 | 83 | 1010.6 |
| 20260904143004 | 7 | 192 | 0.0 | 0.0 | 0.00 | 0.03 | 0.00 | 84 | 1010.5 |
| 20260904141600 | 6 | 192 | 0.0 | 0.0 | 0.00 | 0.03 | 0.00 | 82 | 1010.3 |
| 20260904140059 | 6 | 204 | 0.0 | 0.0 | 0.00 | 0.03 | 0.00 | 81 | 1010.1 |
| 20260904134559 | 7 | 204 | 0.0 | 0.0 | 0.00 | 0.03 | 0.00 | 79 | 1009.8 |
| 20260904133054 | 7 | 204 | 0.0 | 0.0 | 0.00 | 0.03 | 0.00 | 79 | 1009.7 |
| 20260904131601 | 6 | 204 | 0.0 | 0.0 | 0.00 | 0.03 | 0.00 | 81 | 1009.8 |
| 20260904130052 | 6 | 204 | 0.0 | 0.0 | 0.00 | 0.03 | 0.00 | 81 | 1009.7 |
| 20260904124551 | 6 | 204 | 0.0 | 0.0 | 0.00 | 0.03 | 0.00 | 81 | 1009.5 |
| 20260904123049 | 6 | 204 | 0.0 | 0.0 | 0.00 | 0.03 | 0.00 | 81 | 1009.5 |
| 20260904121547 | 6 | 204 | 0.0 | 0.0 | 0.00 | 0.03 | 0.00 | 79 | 1009.4 |
| 20260904120044 | 7 | 204 | 0.0 | 0.0 | 0.00 | 0.03 | 0.00 | 81 | 1009.3 |
| 20260904114541 | 7 | 204 | 0.0 | 0.0 | 0.00 | 0.03 | 0.00 | 79 | 1009.0 |
| 20260904113043 | 8 | 204 | 0.0 | 0.0 | 0.00 | 0.03 | 0.00 | 77 | 1008.9 |
| 20260904111538 | 8 | 204 | 0.0 | 0.0 | 0.00 | 0.03 | 0.00 | 77 | 1008.7 |
| 20260904110032 | 8 | 204 | 0.0 | 0.0 | 0.00 | 0.03 | 0.00 | 75 | 1008.5 |
| 20260904104530 | 9 | 204 | 0.0 | 0.0 | 0.00 | 0.05 | 0.00 | 72 | 1008.5 |
| 20260904103027 | 9 | 203 | 0.0 | 0.0 | 0.00 | 0.05 | 0.00 | 72 | 1008.3 |
| 20260904101525 | 10 | 201 | 0.0 | 0.0 | 0.00 | 0.05 | 0.00 | 70 | 1007.9 |
| 20260904100028 | 10 | 205 | 0.0 | 0.0 | 0.00 | 0.05 | 0.00 | 71 | 1007.5 |
| 20260904094532 | 9 | 205 | 0.0 | 0.0 | 0.00 | 0.20 | 0.00 | 73 | 1007.6 |
| 20260904093022 | 10 | 205 | 0.0 | 0.0 | 0.00 | 0.20 | 0.00 | 72 | 1007.8 |
| 20260904091520 | 10 | 205 | 0.0 | 0.0 | 0.00 | 0.20 | 0.00 | 71 | 1007.7 |
| 20260904090019 | 10 | 205 | 0.0 | 0.0 | 0.00 | 0.20 | 0.00 | 69 | 1007.7 |
| 20260904084516 | 10 | 205 | 0.0 | 0.0 | 0.00 | 0.23 | 0.00 | 68 | 1007.7 |
| 20260904083027 | 10 | 205 | 0.0 | 0.0 | 0.00 | 0.23 | 0.00 | 66 | 1007.4 |
| 20260904081512 | 10 | 205 | 0.0 | 0.0 | 0.00 | 0.23 | 0.00 | 65 | 1007.2 |
| 20260904080009 | 11 | 205 | 0.0 | 0.0 | 0.00 | 0.23 | 0.00 | 63 | 1007.3 |
| 20260904074506 | 11 | 205 | 0.0 | 0.0 | 0.00 | 0.23 | 0.00 | 62 | 1007.1 |
| 20260904073003 | 11 | 137 | 0.0 | 0.0 | 0.00 | 0.23 | 0.00 | 59 | 1006.8 |
| 20260904071501 | 11 | 94 | 0.0 | 0.0 | 0.00 | 0.23 | 0.00 | 60 | 1006.8 |
| 20260904070059 | 11 | 110 | 0.0 | 0.0 | 0.00 | 0.23 | 0.00 | 60 | 1006.7 |
| 20260904064601 | 12 | 114 | 0.0 | 0.0 | 0.00 | 0.46 | 0.23 | 59 | 1006.7 |
| 20260904063106 | 12 | 130 | 0.0 | 0.0 | 0.00 | 0.46 | 0.23 | 59 | 1006.7 |
| 20260904061557 | 12 | 121 | 0.0 | 0.0 | 0.00 | 0.46 | 0.23 | 59 | 1006.8 |
| 20260904060105 | 12 | 133 | 0.0 | 0.0 | 0.00 | 0.46 | 0.23 | 60 | 1006.8 |
| 20260904054628 | 12 | 135 | 0.0 | 0.0 | 0.00 | 0.61 | 0.23 | 61 | 1006.7 |
| 20260904053057 | 12 | 130 | 0.0 | 0.0 | 0.00 | 0.61 | 0.23 | 61 | 1006.7 |
| 20260904051556 | 12 | 139 | 0.0 | 0.0 | 0.00 | 0.61 | 0.23 | 61 | 1006.8 |
| 20260904050055 | 12 | 127 | 0.0 | 0.0 | 0.00 | 0.61 | 0.23 | 61 | 1006.9 |
| 20260904044555 | 12 | 124 | 0.0 | 0.0 | 0.00 | 0.71 | 0.23 | 59 | 1007.1 |
| 20260904043100 | 13 | 134 | 0.0 | 0.0 | 0.00 | 0.71 | 0.23 | 57 | 1006.7 |
| 20260904041601 | 13 | 133 | 0.0 | 0.0 | 0.00 | 0.71 | 0.23 | 56 | 1006.5 |
| 20260904040053 | 13 | 134 | 0.0 | 0.0 | 0.00 | 0.71 | 0.23 | 56 | 1006.5 |
| 20260904034553 | 13 | 131 | 0.0 | 0.0 | 0.00 | 0.84 | 0.23 | 55 | 1006.4 |
| 20260904033053 | 13 | 122 | 0.0 | 0.0 | 0.00 | 0.84 | 0.23 | 54 | 1006.2 |
| 20260904031558 | 13 | 135 | 0.0 | 0.0 | 0.00 | 0.84 | 0.23 | 54 | 1006.3 |
| 20260904030052 | 13 | 90 | 0.0 | 0.0 | 0.00 | 0.84 | 0.23 | 54 | 1006.0 |